Location: Recife
(8.0585°S, 34.8848°W)
Time: 20:38:48
(UTC-03:00)

S-56A Canister/Altair - Pass Details

Date: 19 April 2026
Orbit: 633 x 2484 km, 38.9° (Epoch: 16 May)

Event Time Altitude Azimuth Distance (km) Brightness Sun altitude
Rises 12:51:28 0° 305° (NW) 5,921 12.5 59.9°
Reaches altitude 10° 12:55:41 10° 303° (WNW) 4,736 12.2 59.0°
Maximum altitude 13:08:18 68° 222° (SW) 1,782 10.4 56.5°
Drops below altitude 10° 13:16:42 10° 139° (SE) 3,252 10.5 54.8°
Sets 13:19:06 0° 136° (SE) 4,010 10.9 54.3°
